Regional Weather Roundup
Issued by NWS Green Bay, WI

Home | Current Version | Previous Version | Graphics & Text | Print | Product List | Glossary Off
Versions: 1 2 3 4 5 6 7 8 9 10 11 12 13 14 15 16 17 18 19 20 21 22 23 24 25 26 27 28 29 30 31 32 33 34 35 36 37 38 39 40 41 42 43 44 45 46 47 48 49 50

000
ASUS43 KGRB 262210
RWRGRB

NORTH-CENTRAL AND NORTHEAST WISCONSIN REGIONAL WEATHER ROUNDUP
NATIONAL WEATHER SERVICE GREEN BAY WI
400 PM CST WED NOV 26 2014

WIZ005-009-010>012-018-019-262300-
NORTH CENTRAL WISCONSIN

CITY           SKY/WX    TMP DP  RH WIND       PRES   REMARKS
IRONWOOD       CLOUDY    23  21  93 NW9       30.14R VSB 1/2
MANITOWISH WTR LGT SNOW  21  19  93 NW7       30.12R
ARBOR VITAE    LGT SNOW  23  20  87 NW3       30.12R VSB 1
EAGLE RIVER    LGT SNOW  21  17  82 W3        30.11R
LAND O LAKES   LGT SNOW  23  20  89 W3        30.12R
RHINELANDER    LGT SNOW  22  18  85 NW3       30.12R FOG
PHILLIPS       LGT SNOW  22  18  86 NW5       30.14R
ANTIGO         CLOUDY    21  18  86 CALM      30.12R
TOMAHAWK       LGT SNOW  23  19  86 CALM      30.14R
MERRILL        LGT SNOW  24  19  82 NW5       30.14R
$$

WIZ013-073-262300-
NORTHEAST WISCONSIN

CITY           SKY/WX    TMP DP  RH WIND       PRES   REMARKS
IRON MOUNTAIN  CLOUDY    23  17  78 W3        30.12R
MARINETTE      CLOUDY    23  16  74 NW3       30.17S
OCONTO         PTCLDY    21  18  88 NW3       30.18R
$$

WIZ017-030-035>037-045-262300-
CENTRAL WISCONSIN

CITY           SKY/WX    TMP DP  RH WIND       PRES   REMARKS
MEDFORD        LGT SNOW  23  20  89 NW3       30.14R
WAUSAU         LGT SNOW  24  19  81 W7        30.13R
MOSINEE        MOCLDY    23  21  93 NW5       30.15R
MARSHFIELD     CLOUDY    26  16  65 NW8       30.15R
WISC RAPIDS    CLOUDY    25  15  66 N6        30.18R
STEVENS POINT  CLOUDY    21  18  89 CALM      30.16R
WAUPACA        MOCLDY    24  19  80 NW5       30.18R
SHAWANO        CLOUDY    24  18  78 CALM      30.17R
CLINTONVILLE   MOCLDY    21  18  86 CALM      30.17R
$$

WIZ038-039-048-051-262300-
FOX VALLEY

CITY           SKY/WX    TMP DP  RH WIND       PRES   REMARKS
NWS GREEN BAY  MOCLDY    22  17  81 NW5       30.18R HAZE
APPLETON       MOCLDY    21  19  93 NW7       30.16R FOG
OSHKOSH        MOCLDY    22  17  81 MISG      30.16R HAZE
FOND DU LAC    MOCLDY    22  17  81 N5        30.16R
$$

WIZ022-050-052-262300-
EAST CENTRAL WISCONSIN

CITY           SKY/WX    TMP DP  RH WIND       PRES   REMARKS
STURGEON BAY   MOCLDY    23  16  74 CALM      30.16S
MANITOWOC      CLOUDY    25  22  88 N12       30.17R
SHEBOYGAN      CLOUDY    24  19  81 N7        30.15R
$$

LMZ563-521-522-541>543-262300-
LAKESHORE

STATION/POSITION TIME  TEMP    WIND        PRES    VSBY  WAVE
                       AIR SEA DIR/SP/G                  HT/PER
                 (UTC) (F)     (DEG/KT/KT) (MB)    (MI)  (FT/S)
SHEBOYGAN LKSHOR 2200   26 36  320/  9/ 11 1022.4R
KEWAUNEE LKSHORE 2200   24     320/  3/  8 1020.6S
NORTHPORT PIER   2200   25     270/  2/  8 1021.7R
N MID LAKE BUOY  2200   28 42  280/  6/  8 1022.2R         1/ 3
SISTER BAY LKSHO 2100          330/  3/  6   N/A
STURGEON BAY CG  2200   24     300/  3     1022.6      6   1
CHAMBERS ISLAND  2200   25     260/  3/  7 1021.7S
MENOMINEE LKSHOR 2200   24     260/  4/  7 1022.1S
$$


USA.gov is the U.S. government's official web portal to all federal, state and local government web resources and services.